Location: Unspecified
(58.7730°N, 5.8460°E)
Time: 17:56:33
(UTC+02:00)

Resurs 1-4 Rocket - Visible Passes

Search period start: 29 July 2015 00:00
Search period end: 08 August 2015 00:00
Orbit: 800 x 815 km, 98.4° (Epoch: 28 July)

Date Brightness Start Highest point End Pass type
(mag) Time Alt. Az. Time Alt. Az. Time Alt. Az.
30 Jul 3.8 04:19:16 10° NNE 04:23:54 30° E 04:28:33 10° SSE visible
31 Jul 4.3 03:55:07 10° NE 03:59:04 21° E 04:03:07 10° SE visible
01 Aug 4.6 03:31:16 10° NE 03:34:08 15° E 03:37:11 10° ESE visible
03 Aug 3.8 04:21:08 10° NNE 04:25:48 31° E 04:30:30 10° SSE visible
04 Aug 4.3 03:56:57 10° NE 04:00:59 22° E 04:05:06 10° SE visible
05 Aug 4.6 03:33:04 10° NE 03:36:04 15° E 03:39:14 10° ESE visible
06 Aug 4.9 03:10:24 10° ENE 03:11:03 10° ENE 03:11:58 10° E visible
07 Aug 3.7 04:23:00 10° NNE 04:27:43 32° E 04:32:27 10° SSE visible
